Powrót do katalogu

O3B FM12

AktywnyŁącznośćMEO
NORAD 40350·PAYLOAD·🇱🇺 Luxembourg

Wystrzelony Dec 18, 2014 z Guiana Space Centre

Loading…

Następne Przeloty (najbliższe 24 godziny)

TLE

ŚwieżeSource: CelesTrak SupGP

Epoka: Sep 13, 2026, 16:00 UTC

1 40350C 14083C   26256.66666667  .00000000  00000+0  00000+0 0  2562
2 40350   0.0534 349.2359 0002439 182.6080  37.1900  5.00116119    19

Śledź O3B FM12 w czasie rzeczywistym z AllMySat

Download on the App Store